[[{"header":{"parameterUnit":"m.s-1","parameterCategory":1,"la1":30.2991,"la2":30.254,"lo1":-89.0895,"lo2":-89.0444,"dy":0.0017,"dx":0.0017,"nx":28,"ny":28,"refTime":"2025-01-01T03:00:00:Z","depth":0,"parameterNumber":2,"parameterNumberName":"U-component_of_WINDS"},"data":[0,0,0,0,0,0,0,0,0,0,0,0,0,0,0,0,0,0,0,0,0,0,0,0,0,0,0,0,0,0,0,0,0,0,0,0,0,0,0,0,0,0,0,0,0,0,0,0,0,0,0,0,0,0,0,0,0,0,-1.5933,-1.5934,0,-1.6013,-1.6014,-1.6015,-1.5995,-1.5993,-1.5992,-1.599,-1.6079,-1.6082,-1.6086,0,0,0,0,0,0,0,0,0,0,0,0,0,-1.5768,-1.5771,-1.5933,-1.5934,-1.5935,-1.6013,-1.6014,-1.6015,-1.5995,-1.5993,-1.5991,-1.599,-1.6077,-1.6082,-1.6086,0,0,0,0,0,0,0,0,0,0,0,0,0,-1.5843,-1.5772,-1.5932,-1.5934,-1.5935,-1.6013,-1.6014,-1.6016,-1.5996,-1.5993,-1.5991,-1.5989,-1.6076,-1.6081,-1.6087,-1.617,0,0,-1.6105,-1.6107,0,0,0,0,0,0,0,0,-1.5839,-1.5849,-1.5933,-1.5934,-1.5935,-1.5991,-1.5988,-1.6068,-1.5996,-1.5973,-1.599,-1.5987,-1.6052,-1.606,-1.608,-1.6175,-1.6178,-1.6105,-1.6109,-1.6111,-1.6113,0,0,0,0,0,0,0,-1.5834,-1.5846,-1.5965,-1.5934,-1.5935,-1.5933,-1.5941,-1.6003,-1.6025,-1.5975,-1.5973,-1.5983,-1.6052,-1.6075,-1.6082,-1.618,-1.6105,-1.611,-1.6114,-1.6116,-1.6348,-1.635,0,0,0,0,0,0,-1.5827,-1.5842,-1.5962,-1.5967,-1.588,-1.5938,-1.5947,-1.5976,-1.6024,-1.6029,-1.5985,-1.5982,-1.6066,-1.6075,-1.6085,-1.6185,-1.6111,-1.6117,-1.612,-1.6345,-1.6348,-1.6351,0,0,0,0,0,0,-1.5823,-1.5838,-1.5959,-1.5904,-1.5919,-1.5943,-1.5976,-1.5979,-1.6001,-1.6032,-1.6036,-1.6003,-1.6064,-1.6077,-1.6149,-1.6188,-1.6119,-1.6124,-1.6342,-1.6346,-1.635,-1.6387,0,0,0,0,0,0,-1.5819,-1.5836,-1.5867,-1.5905,-1.5922,-1.6019,-1.5978,-1.5982,-1.601,-1.6007,-1.605,-1.6055,-1.6063,-1.6141,-1.6155,-1.6195,-1.6129,-1.6338,-1.6344,-1.6348,-1.6382,-1.6391,-1.6399,0,0,0,0,0,-1.5813,-1.5875,-1.5868,-1.5883,-1.596,-1.6022,-1.6032,-1.6038,-1.6013,-1.6045,-1.6065,-1.6054,-1.6182,-1.6148,-1.6164,-1.6206,-1.6336,-1.6342,-1.6348,-1.6378,-1.6389,-1.6399,0,0,0,0,0,0,-1.5842,-1.588,-1.5873,-1.5949,-1.5982,-1.6018,-1.6058,-1.6051,-1.6093,-1.6088,-1.6097,-1.6107,-1.618,-1.6201,-1.6163,-1.629,-1.6256,-1.6265,-1.6273,-1.6284,-1.6293,-1.6285,-1.6134,0,0,0,0,0,-1.5858,-1.5903,-1.5934,-1.5998,-1.6015,-1.6034,-1.6061,-1.6063,-1.6099,-1.6113,-1.6139,-1.6175,-1.6224,-1.6256,-1.6302,-1.6386,-1.6395,-1.6423,-1.6432,-1.6439,-1.6446,-1.6493,-1.6505,-1.6371,-1.6371,-1.6371,0,0,-1.589,-1.5916,-1.5944,-1.6005,-1.6031,-1.6079,-1.6046,-1.6098,-1.6134,-1.6122,-1.619,-1.6211,-1.6253,-1.6331,-1.6367,-1.635,-1.6486,-1.6447,-1.6452,-1.6456,-1.65,-1.6513,-1.6524,-1.6375,-1.6374,-1.6374,0,0,-1.5972,-1.5997,-1.6052,-1.6079,-1.6118,-1.613,-1.6144,-1.6182,-1.6194,-1.6263,-1.6255,-1.63,-1.6383,-1.6413,-1.6439,-1.6536,-1.6527,-1.6551,-1.6596,-1.6641,-1.6651,-1.6661,-1.6694,-1.6707,-1.6559,-1.6559,-1.6559,0,-1.6007,-1.6077,-1.6082,-1.6135,-1.6163,-1.6153,-1.621,-1.6237,-1.629,-1.631,-1.6291,-1.6396,-1.6424,-1.6509,-1.6532,-1.6554,-1.6571,-1.6545,-1.6649,-1.6659,-1.6668,-1.67,-1.6713,-1.6562,-1.6561,-1.6561,-1.6561,0,-1.6119,-1.6168,-1.6209,-1.6258,-1.629,-1.6346,-1.6361,-1.6394,-1.6395,-1.641,-1.6481,-1.6514,-1.6567,-1.6588,-1.659,-1.6674,-1.6662,-1.6647,-1.6612,-1.6683,-1.6713,-1.6726,-1.6565,-1.6564,-1.6564,-1.6563,0,0,-1.622,-1.6272,-1.6287,-1.6309,-1.6353,-1.6392,-1.6448,-1.6498,-1.6526,-1.6564,-1.6612,-1.6683,-1.6669,-1.6699,-1.6704,-1.6744,-1.6818,-1.6723,-1.6725,-1.6739,-1.6913,-1.6923,-1.6937,-1.6813,-1.6816,-1.6818,-1.6909,0,-1.6305,-1.64,-1.6407,-1.6494,-1.654,-1.6532,-1.6581,-1.6614,-1.6631,-1.6674,-1.6694,-1.6743,-1.6721,-1.6739,-1.6778,-1.68,-1.6852,-1.6794,-1.6858,-1.6861,-1.6846,-1.6953,-1.6964,-1.7048,-1.6921,-1.6923,-1.6924,0,-1.6416,-1.6455,-1.6546,-1.6583,-1.6603,-1.6646,-1.6693,-1.6734,-1.6773,-1.6782,-1.6816,-1.6817,-1.6877,-1.6841,-1.6925,-1.6885,-1.6912,-1.6928,-1.6931,-1.6936,-1.6895,-1.6959,-1.7075,-1.7087,-1.6943,-1.6942,-1.694,0,-1.6479,-1.6555,-1.6619,-1.6639,-1.6685,-1.6715,-1.6736,-1.6772,-1.6802,-1.6845,-1.6864,-1.6914,-1.6941,-1.6981,-1.6996,-1.6969,-1.7078,-1.7044,-1.7088,-1.7088,-1.711,-1.7108,-1.723,-1.7131,-1.7131,-1.713,-1.713,0,-1.6572,-1.6628,-1.6648,-1.6687,-1.675,-1.6759,-1.6822,-1.6842,-1.6874,-1.6919,-1.6917,-1.696,-1.6977,-1.7023,-1.7036,-1.7103,-1.7116,-1.7126,-1.7128,-1.7125,-1.7123,-1.7141,-1.7135,-1.7134,-1.7133,-1.7132,-1.7132,0,-1.6652,-1.6667,-1.6736,-1.6774,-1.6785,-1.683,-1.6863,-1.6902,-1.6919,-1.6975,-1.6989,-1.7016,-1.707,-1.7089,-1.7156,-1.7164,-1.7242,-1.724,-1.7227,-1.7227,-1.727,-1.7265,-1.7407,-1.7426,-1.7315,-1.7316,-1.7317,0,-1.6709,-1.6751,-1.6793,-1.6822,-1.6843,-1.689,-1.692,-1.6932,-1.6964,-1.7012,-1.7046,-1.7099,-1.7142,-1.723,-1.7256,-1.7308,-1.7307,-1.7353,-1.7314,-1.731,-1.7306,-1.7302,-1.7307,-1.7359,-1.736,-1.7361,-1.7362,0,-1.6809,-1.6815,-1.6857,-1.6902,-1.6938,-1.6975,-1.7011,-1.7035,-1.7054,-1.709,-1.7144,-1.7177,-1.7245,-1.7298,-1.7351,-1.7375,-1.7372,-1.7374,-1.7387,-1.7383,-1.7373,-1.7378,-1.7245,-1.737,-1.7369,-1.7369,-1.7368,-1.7368,-1.6878,-1.6915,-1.695,-1.6998,-1.7026,-1.706,-1.7098,-1.7119,-1.7164,-1.7218,-1.7224,-1.7282,-1.7322,-1.7392,-1.7419,-1.7467,-1.7454,-1.7473,-1.7477,-1.7481,-1.7484,-1.7367,-1.7477,-1.7477,-1.7476,-1.7476,-1.7476,0,-1.6977,-1.6999,-1.7043,-1.7092,-1.713,-1.7123,-1.7163,-1.7195,-1.7246,-1.7283,-1.7325,-1.7388,-1.744,-1.7471,-1.7524,-1.7557,-1.7557,-1.757,-1.7567,-1.7573,-1.7492,-1.7475,-1.7569,-1.7569,-1.7569,-1.7569,-1.7569,-1.7569,-1.7032,-1.7094,-1.7105,-1.7182,-1.7205,-1.726,-1.7283,-1.7315,-1.7344,-1.7414,-1.7456,-1.7476,-1.7511,-1.7567,-1.7615,-1.7623,-1.7643,-1.7657,-1.7664,-1.7588,-1.7578,-1.7569,-1.7553,-1.7661,-1.7661,-1.774,-1.7741,-1.7741]},{"header":{"parameterUnit":"m.s-1","parameterCategory":1,"la1":30.2991,"la2":30.254,"lo1":-89.0895,"lo2":-89.0444,"dy":0.0017,"dx":0.0017,"nx":28,"ny":28,"refTime":"2025-01-01T03:00:00:Z","depth":0,"parameterNumber":3,"parameterNumberName":"V-component_of_WINDS"},"data":[0,0,0,0,0,0,0,0,0,0,0,0,0,0,0,0,0,0,0,0,0,0,0,0,0,0,0,0,0,0,0,0,0,0,0,0,0,0,0,0,0,0,0,0,0,0,0,0,0,0,0,0,0,0,0,0,0,0,1.5322,1.5323,0,1.5414,1.5415,1.5416,1.5465,1.5465,1.5465,1.5465,1.5557,1.5559,1.5561,0,0,0,0,0,0,0,0,0,0,0,0,0,1.5185,1.5187,1.5321,1.5323,1.5324,1.5414,1.5415,1.5416,1.5465,1.5465,1.5465,1.5466,1.5556,1.5559,1.5561,0,0,0,0,0,0,0,0,0,0,0,0,0,1.5258,1.5188,1.5321,1.5359,1.5363,1.5414,1.5415,1.5417,1.5465,1.5465,1.5465,1.5466,1.5555,1.5558,1.5562,1.558,0,0,1.5572,1.5574,0,0,0,0,0,0,0,0,1.5253,1.5262,1.5352,1.5357,1.5362,1.5428,1.5401,1.5472,1.5465,1.5426,1.5465,1.5466,1.5514,1.552,1.5537,1.5585,1.5589,1.5573,1.5575,1.5576,1.5577,0,0,0,0,0,0,0,1.5248,1.5259,1.5358,1.5354,1.5359,1.5371,1.5381,1.5414,1.5468,1.543,1.5434,1.5444,1.5516,1.5534,1.554,1.559,1.5573,1.5576,1.5578,1.5579,1.566,1.566,0,0,0,0,0,0,1.5238,1.5254,1.5355,1.5361,1.5307,1.5373,1.5385,1.5407,1.5468,1.5477,1.5444,1.5446,1.5528,1.5536,1.5543,1.5571,1.5576,1.558,1.5582,1.5659,1.566,1.566,0,0,0,0,0,0,1.5234,1.5246,1.5351,1.5309,1.5323,1.5375,1.5399,1.5408,1.5426,1.5478,1.5488,1.5452,1.5528,1.5538,1.5572,1.5574,1.5581,1.5584,1.5659,1.5659,1.566,1.5625,0,0,0,0,0,0,1.523,1.5245,1.5253,1.5309,1.5325,1.5379,1.54,1.541,1.5433,1.5436,1.5489,1.5498,1.5529,1.5566,1.5575,1.5579,1.5587,1.5659,1.5659,1.566,1.5626,1.5623,1.5621,0,0,0,0,0,1.5225,1.5238,1.5253,1.5265,1.5336,1.5379,1.5388,1.5425,1.5433,1.5441,1.5475,1.5496,1.5573,1.5569,1.558,1.5585,1.5659,1.5659,1.566,1.5627,1.5624,1.5621,0,0,0,0,0,0,1.5179,1.5246,1.5263,1.5294,1.5331,1.5387,1.5398,1.5421,1.5454,1.5456,1.55,1.5511,1.5541,1.5566,1.5561,1.5607,1.5618,1.562,1.559,1.5588,1.5585,1.5579,1.559,0,0,0,0,0,1.5173,1.5202,1.5259,1.5281,1.5298,1.5345,1.5365,1.5391,1.5429,1.5445,1.5481,1.5517,1.555,1.557,1.5603,1.563,1.5642,1.5639,1.5637,1.5635,1.5636,1.5654,1.5653,1.566,1.566,1.566,0,0,1.5159,1.5199,1.5215,1.5272,1.5304,1.5333,1.5358,1.5387,1.541,1.5449,1.5483,1.5511,1.5554,1.5585,1.5601,1.5607,1.5637,1.5635,1.5633,1.5635,1.5654,1.5653,1.5653,1.566,1.566,1.566,0,0,1.515,1.5183,1.5206,1.5238,1.5285,1.5317,1.5322,1.5376,1.5397,1.5432,1.5463,1.549,1.5544,1.5575,1.5597,1.5602,1.5624,1.5612,1.56,1.5618,1.5617,1.5617,1.562,1.562,1.5613,1.5613,1.5613,0,1.5127,1.5173,1.5214,1.5244,1.5268,1.5307,1.5331,1.5359,1.5414,1.543,1.5438,1.5509,1.554,1.558,1.5582,1.5598,1.5606,1.5606,1.5614,1.5614,1.5615,1.5618,1.5619,1.5611,1.5611,1.5611,1.5612,0,1.5143,1.5175,1.5188,1.5243,1.5269,1.5295,1.534,1.5361,1.5385,1.5416,1.5452,1.5492,1.5534,1.5546,1.5568,1.5589,1.5592,1.5606,1.5618,1.5612,1.5615,1.5617,1.5609,1.5609,1.561,1.561,0,0,1.5106,1.5185,1.5189,1.5216,1.5272,1.5297,1.5325,1.5369,1.5387,1.5424,1.5449,1.5496,1.551,1.5535,1.5562,1.5577,1.558,1.559,1.5591,1.5587,1.5607,1.5596,1.5597,1.5595,1.5595,1.5596,1.5604,0,1.5106,1.5159,1.5198,1.5237,1.5267,1.5306,1.5331,1.5368,1.5398,1.5428,1.546,1.5493,1.5509,1.5525,1.5542,1.5576,1.5585,1.5576,1.5618,1.5619,1.5607,1.5599,1.5587,1.5593,1.5605,1.5605,1.5606,0,1.5112,1.515,1.5192,1.5248,1.5262,1.5284,1.5328,1.5356,1.5399,1.542,1.545,1.5478,1.551,1.5519,1.5563,1.5557,1.5577,1.5596,1.5598,1.5603,1.5612,1.5605,1.5595,1.5596,1.5608,1.5608,1.5608,0,1.5082,1.5144,1.5178,1.5199,1.5264,1.5279,1.5306,1.535,1.5374,1.5412,1.5429,1.5469,1.5491,1.5522,1.556,1.5563,1.5601,1.5613,1.5619,1.5618,1.5625,1.5624,1.562,1.5637,1.5637,1.5637,1.5637,0,1.5078,1.5102,1.5166,1.5186,1.5215,1.526,1.5287,1.5317,1.5357,1.5384,1.5419,1.5444,1.5493,1.5524,1.5554,1.5587,1.5596,1.5614,1.5622,1.5611,1.5609,1.5625,1.5626,1.5637,1.5637,1.5637,1.5637,0,1.5049,1.5092,1.5132,1.5191,1.5207,1.5226,1.5276,1.5298,1.5331,1.5365,1.5376,1.5426,1.5465,1.5507,1.5558,1.5579,1.561,1.5621,1.5596,1.56,1.5605,1.5604,1.561,1.5614,1.5628,1.5627,1.5627,0,1.5043,1.5063,1.5126,1.5148,1.5175,1.5209,1.5235,1.528,1.5305,1.5357,1.5373,1.5414,1.545,1.5509,1.555,1.559,1.5603,1.5602,1.5609,1.5598,1.5604,1.5602,1.5605,1.56,1.56,1.5599,1.5599,0,1.5029,1.5051,1.5087,1.5131,1.5161,1.5198,1.5235,1.5251,1.5303,1.533,1.5371,1.5398,1.5453,1.5493,1.5539,1.5567,1.5592,1.5597,1.5601,1.559,1.5575,1.5585,1.5591,1.5596,1.5597,1.5597,1.5597,1.5597,1.5013,1.5033,1.5081,1.5121,1.5155,1.519,1.5214,1.525,1.5286,1.5334,1.5358,1.5399,1.5444,1.5508,1.5536,1.5568,1.5576,1.5581,1.5582,1.5583,1.5581,1.557,1.5577,1.5577,1.5577,1.5577,1.5577,0,1.5002,1.5035,1.5071,1.5124,1.5156,1.5178,1.5222,1.5246,1.5282,1.5322,1.5357,1.5405,1.5445,1.5491,1.5534,1.5551,1.5564,1.5561,1.556,1.5567,1.5571,1.5564,1.555,1.555,1.555,1.555,1.555,1.555,1.5,1.5036,1.5063,1.5117,1.515,1.5191,1.5215,1.5248,1.528,1.5332,1.5367,1.5397,1.5439,1.5486,1.5525,1.5537,1.5551,1.5546,1.5561,1.5564,1.5566,1.5568,1.5562,1.5548,1.5548,1.5554,1.5555,1.5555]}]]